デニング-藤川彗星

72P/Denning-Fujikawa (2023)

English version
Home page
Updated on July 9, 2023

---------------------------------------------------------------------

・ プロフィール

・ 写真集

・ 軌道要素

Epoch 2023 Feb. 25.0 TT = JDT 2460000.5                                         
T 2023 June 15.77491 TT                                 Rudenko                 
q   0.7810236            (2000.0)            P               Q                  
n   0.11026772     Peri.  346.73423     +0.97075534     -0.22438912             
a   4.3069561      Node    26.70124     +0.23393719     +0.80431609             
e   0.8186599      Incl.   10.94884     +0.05392083     +0.55020464             
P   8.94                                                                        
>From 31 observations 2014 June 17-2023 May 10, mean residual 0".7.              

・ 星図

・ 光度変化

        m1 = 17.5 + 5 logΔ + 23.0 log r

---------------------------------------------------------------------

軌道要素はM.P.E.C. 2023-J95に掲載されたものです。
星図はステラナビゲータ Ver.11 (アストロアーツ) で作成したものです。
光度グラフはComet for Windowsで作成したものです。

---------------------------------------------------------------------

Copyright(C) Seiichi Yoshida (comet@aerith.net). All rights reserved.